FW0742 Weather Reports


Display with metric or nautical units.
time (UTC)temp
F
wind
direction
speed
MPH
gust
MPH
rain 1hr
in
rain 24hr
in
rain mn
in
humidity
%
barometer
mb
20210625135823 82 197 12.0 17.0 0.00 0.00 0.00 79 1011.7
20210625135323 81 199 12.0 17.0 0.00 0.00 0.00 80 1011.7
20210625134823 81 194 11.0 17.0 0.00 0.00 0.00 81 1011.8
20210625134322 81 194 11.0 17.0 0.00 0.00 0.00 81 1011.7
20210625133822 81 189 11.0 17.0 0.00 0.00 0.00 82 1011.7
20210625133322 81 182 11.0 17.0 0.00 0.00 0.00 83 1011.7
20210625132824 80 187 10.0 16.0 0.00 0.00 0.00 83 1011.6
20210625132323 80 193 11.0 18.0 0.00 0.00 0.00 83 1011.7
20210625131823 80 193 11.0 18.0 0.00 0.00 0.00 84 1011.7
20210625131323 79 193 11.0 18.0 0.00 0.00 0.00 85 1011.7
20210625130823 79 191 11.0 18.0 0.00 0.00 0.00 85 1011.6
20210625130322 79 187 10.0 18.0 0.00 0.00 0.00 85 1011.5
20210625125822 79 184 11.0 18.0 0.00 0.00 0.00 86 1011.5
20210625125322 79 184 10.0 17.0 0.00 0.00 0.00 86 1011.5
20210625124822 79 184 9.0 15.0 0.00 0.00 0.00 86 1011.6
20210625124322 79 189 9.0 15.0 0.00 0.00 0.00 86 1011.6
20210625123823 79 194 8.0 15.0 0.00 0.00 0.00 86 1011.7
20210625123322 78 190 8.0 13.0 0.00 0.00 0.00 86 1011.8
20210625122823 78 185 9.0 14.0 0.00 0.00 0.00 87 1011.6
20210625122323 78 185 9.0 14.0 0.00 0.00 0.00 87 1011.6
20210625121822 78 181 9.0 13.0 0.00 0.00 0.00 87 1011.5
20210625121322 78 176 9.0 14.0 0.00 0.00 0.00 87 1011.6
20210625120823 78 175 9.0 14.0 0.00 0.00 0.00 87 1011.5
20210625120323 79 174 9.0 14.0 0.00 0.00 0.00 86 1011.3
20210625115823 79 173 9.0 14.0 0.00 0.00 0.00 86 1011.2
20210625115323 79 175 9.0 14.0 0.00 0.00 0.00 86 1011.1
20210625114823 79 173 9.0 13.0 0.00 0.00 0.00 86 1011.2
20210625114323 79 173 9.0 13.0 0.00 0.00 0.00 86 1011.3
20210625113823 79 178 8.0 14.0 0.00 0.00 0.00 86 1011.3
20210625113323 79 184 8.0 14.0 0.00 0.00 0.00 86 1011.3
20210625112823 79 183 6.0 12.0 0.00 0.00 0.00 86 1011.5
20210625111823 79 173 8.0 13.0 0.00 0.00 0.00 86 1011.4
20210625111323 79 172 8.0 13.0 0.00 0.00 0.00 86 1011.3
20210625110822 79 172 7.0 13.0 0.00 0.00 0.00 86 1011.4
20210625105325 79 175 8.0 14.0 0.00 0.00 0.00 86 1011.4
20210625104823 79 172 8.0 14.0 0.00 0.00 0.00 86 1011.4
20210625103822 79 184 8.0 12.0 0.00 0.00 0.00 86 1011.4
20210625103322 79 187 8.0 12.0 0.00 0.00 0.00 86 1011.4
20210625102823 79 181 9.0 14.0 0.00 0.00 0.00 86 1011.3
20210625102322 79 174 9.0 15.0 0.00 0.00 0.00 86 1011.3
20210625101823 79 173 9.0 15.0 0.00 0.00 0.00 86 1011.3
20210625101323 79 173 8.0 13.0 0.00 0.00 0.00 86 1011.3
20210625100822 79 176 7.0 11.0 0.00 0.00 0.00 86 1011.5
20210625100323 79 178 8.0 11.0 0.00 0.00 0.00 86 1011.5
20210625095823 79 178 7.0 11.0 0.00 0.00 0.00 86 1011.6
20210625095323 79 182 7.0 11.0 0.00 0.00 0.00 86 1011.5
20210625094823 80 182 7.0 12.0 0.00 0.00 0.00 85 1011.6
20210625094323 80 181 7.0 12.0 0.00 0.00 0.00 86 1011.6
20210625093823 80 182 7.0 12.0 0.00 0.00 0.00 85 1011.6
20210625093323 80 181 7.0 14.0 0.00 0.00 0.00 85 1011.5
20210625092822 80 178 8.0 14.0 0.00 0.00 0.00 85 1011.5
20210625092323 80 182 7.0 12.0 0.00 0.00 0.00 85 1011.5
20210625091823 80 187 7.0 11.0 0.00 0.00 0.00 85 1011.6
20210625091322 80 189 7.0 11.0 0.00 0.00 0.00 85 1011.6
20210625090822 80 189 6.0 11.0 0.00 0.00 0.00 84 1011.5
20210625090322 80 186 7.0 12.0 0.00 0.00 0.00 84 1011.5
20210625085823 80 183 7.0 12.0 0.00 0.00 0.00 84 1011.5
20210625085322 80 177 6.0 12.0 0.00 0.00 0.00 84 1011.5
20210625084822 80 175 6.0 12.0 0.00 0.00 0.00 84 1011.5
20210625084322 80 178 7.0 11.0 0.00 0.00 0.00 84 1011.4
20210625083822 80 179 7.0 11.0 0.00 0.00 0.00 84 1011.3
20210625083323 80 184 7.0 13.0 0.00 0.00 0.00 83 1011.4
20210625082822 80 188 7.0 13.0 0.00 0.00 0.00 83 1011.4
20210625082322 81 184 7.0 11.0 0.00 0.00 0.00 83 1011.3
20210625081822 81 181 8.0 14.0 0.00 0.00 0.00 83 1011.1
20210625081322 81 182 9.0 15.0 0.00 0.00 0.00 83 1011.1
20210625080822 81 183 9.0 15.0 0.00 0.00 0.00 83 1011.1
20210625080322 81 186 7.0 13.0 0.00 0.00 0.00 83 1011.2
20210625075822 81 185 8.0 14.0 0.00 0.00 0.00 82 1011.2
20210625075323 81 183 8.0 14.0 0.00 0.00 0.00 82 1011.1
20210625074822 81 184 9.0 14.0 0.00 0.00 0.00 82 1011.0
20210625074322 81 183 9.0 15.0 0.00 0.00 0.00 82 1011.0
20210625073822 81 179 8.0 15.0 0.00 0.00 0.00 82 1011.0
20210625073322 81 183 8.0 13.0 0.00 0.00 0.00 82 1011.1
20210625072823 81 186 7.0 13.0 0.00 0.00 0.00 82 1011.1
20210625072322 81 182 7.0 13.0 0.00 0.00 0.00 82 1011.1
20210625071822 81 182 9.0 13.0 0.00 0.00 0.00 82 1011.2
20210625071323 81 179 9.0 13.0 0.00 0.00 0.00 82 1011.1
20210625070823 81 176 9.0 14.0 0.00 0.00 0.00 82 1011.0
20210625070322 81 173 10.0 16.0 0.00 0.00 0.00 82 1010.9
20210625065822 81 169 10.0 16.0 0.00 0.00 0.00 82 1010.9
20210625065322 80 170 10.0 17.0 0.00 0.00 0.00 82 1010.7
20210625064822 80 170 10.0 17.0 0.00 0.00 0.00 82 1010.6
20210625064322 80 169 9.0 14.0 0.00 0.00 0.00 82 1010.7
20210625063823 80 170 9.0 14.0 0.00 0.00 0.00 82 1010.7
20210625063322 80 171 8.0 14.0 0.00 0.00 0.00 82 1010.8
20210625062823 80 170 8.0 13.0 0.00 0.00 0.00 82 1010.8
20210625062322 80 170 7.0 13.0 0.00 0.00 0.00 81 1010.8
20210625061821 80 170 7.0 11.0 0.00 0.00 0.00 81 1010.7
20210625061322 80 169 7.0 11.0 0.00 0.00 0.00 80 1010.7
20210625060822 80 168 7.0 11.0 0.00 0.00 0.00 80 1010.7
20210625060323 80 168 7.0 12.0 0.00 0.00 0.00 79 1010.7
20210625055822 80 168 6.0 12.0 0.00 0.00 0.00 79 1010.7
20210625055322 80 168 6.0 9.0 0.00 0.00 0.00 79 1010.7
20210625054823 80 166 6.0 9.0 0.00 0.00 0.00 79 1010.7
20210625054322 80 163 6.0 11.0 0.00 0.00 0.00 78 1010.8
20210625053822 80 161 6.0 12.0 0.00 0.00 0.00 78 1010.8
20210625053323 80 160 6.0 12.0 0.00 0.00 0.00 78 1010.9
20210625052822 80 161 5.0 10.0 0.00 0.00 0.00 77 1010.9
20210625052322 80 158 5.0 10.0 0.00 0.00 0.00 77 1010.9
20210625051822 81 155 5.0 10.0 0.00 0.00 0.00 76 1010.8
20210625051321 81 155 4.0 7.0 0.00 0.00 0.00 76 1010.8
20210625050822 81 155 4.0 6.0 0.00 0.00 0.00 76 1010.8
20210625050323 81 156 4.0 7.0 0.00 0.00 0.00 76 1010.8
20210625045822 81 156 4.0 8.0 0.00 0.00 0.00 76 1010.8
20210625045321 81 155 4.0 8.0 0.00 0.00 0.00 75 1010.8
20210625044821 81 158 4.0 8.0 0.00 0.00 0.00 75 1010.8
20210625044322 82 158 4.0 8.0 0.00 0.00 0.00 75 1010.7
20210625043822 82 158 4.0 9.0 0.00 0.00 0.00 75 1010.6
20210625043321 82 157 5.0 10.0 0.00 0.00 0.00 75 1010.5
20210625042822 82 154 5.0 11.0 0.00 0.00 0.00 75 1010.4
20210625042322 82 154 5.0 11.0 0.00 0.00 0.00 74 1010.4
20210625041822 82 157 5.0 9.0 0.00 0.00 0.00 74 1010.3
20210625041321 82 156 6.0 10.0 0.00 0.00 0.00 74 1010.2
20210625040821 82 157 7.0 10.0 0.00 0.00 0.00 74 1010.1
20210625040321 82 160 7.0 12.0 0.00 0.00 0.00 74 1010.0
20210625035822 82 160 6.0 12.0 0.00 0.00 0.00 74 1010.0
20210625035322 82 160 5.0 9.0 0.00 0.00 0.00 74 1010.0
20210625034822 82 159 5.0 9.0 0.00 0.00 0.00 73 1009.8
20210625034323 82 157 5.0 10.0 0.00 0.00 0.00 73 1009.8
20210625033822 82 155 5.0 10.0 0.00 0.00 0.00 72 1009.7
20210625033323 83 156 4.0 8.0 0.00 0.00 0.00 72 1009.6
20210625032823 83 155 3.0 5.0 0.00 0.00 0.00 72 1009.5
20210625032323 83 151 3.0 5.0 0.00 0.00 0.00 71 1009.5
20210625031823 83 149 3.0 5.0 0.00 0.00 0.00 70 1009.6
20210625031323 84 148 3.0 5.0 0.00 0.00 0.00 70 1009.7
20210625030823 84 144 4.0 5.0 0.00 0.00 0.00 70 1009.7
20210625030323 84 145 4.0 6.0 0.00 0.00 0.00 69 1009.7
20210625025823 84 150 3.0 6.0 0.00 0.00 0.00 69 1009.7
20210625025322 85 152 4.0 5.0 0.00 0.00 0.00 69 1009.7
20210625024823 85 151 4.0 6.0 0.00 0.00 0.00 68 1009.7
20210625024323 85 152 4.0 6.0 0.00 0.00 0.00 68 1009.6
20210625023823 86 154 4.0 5.0 0.00 0.00 0.00 67 1009.6
20210625023322 86 150 4.0 6.0 0.00 0.00 0.00 67 1009.6
20210625022823 86 146 4.0 6.0 0.00 0.00 0.00 66 1009.6
20210625022330 86 147 4.0 6.0 0.00 0.00 0.00 66 1009.6
20210625021834 86 149 4.0 6.0 0.00 0.00 0.00 66 1009.7
20210625021325 87 149 5.0 9.0 0.00 0.00 0.00 65 1009.6
20210625015321 88 148 5.0 8.0 0.00 0.00 0.00 63 1009.6
20210625014822 88 149 5.0 8.0 0.00 0.00 0.00 62 1009.5
20210625013824 89 164 5.0 8.0 0.00 0.00 0.00 61 1009.5
20210625013324 89 170 6.0 10.0 0.00 0.00 0.00 60 1009.4
20210625012821 89 173 6.0 12.0 0.00 0.00 0.00 59 1009.4
20210625012321 90 176 6.0 12.0 0.00 0.00 0.00 59 1009.4
20210625005821 91 183 11.0 17.0 0.00 0.00 0.00 56 1009.2
20210625002323 92 186 13.0 21.0 0.00 0.00 0.00 53 1009.1
20210625001329 92 178 14.0 22.0 0.00 0.00 0.00 54 1009.1
20210624234323 93 183 12.0 21.0 0.00 0.00 0.00 52 1009.1
20210624233822 94 183 13.0 20.0 0.00 0.00 0.00 51 1009.2
20210624232327 94 188 11.0 19.0 0.00 0.00 0.00 52 1009.1
20210624231834 94 184 12.0 22.0 0.00 0.00 0.00 52 1009.2
20210624230822 94 188 14.0 21.0 0.00 0.00 0.00 51 1009.3
20210624225821 94 170 14.0 22.0 0.00 0.00 0.00 51 1009.5
20210624225321 94 169 14.0 22.0 0.00 0.00 0.00 50 1009.5
20210624220821 95 179 14.0 22.0 0.00 0.00 0.00 50 1010.0
20210624213321 95 199 14.0 26.0 0.00 0.00 0.00 48 1010.3
20210624212402 95 188 14.0 21.0 0.00 0.00 0.00 50 1010.3
20210624141820 83 199 11.0 20.0 0.00 0.00 0.00 74 1013.2
20210624140828 83 194 12.0 20.0 0.00 0.00 0.00 75 1013.3
20210624140324 82 205 12.0 20.0 0.00 0.00 0.00 76 1013.2